Regional Weather Roundup
Issued by NWS

Home | Current Version | Previous Version | Graphics & Text | Print | Product List | Glossary Off
Versions: 1 2 3 4 5 6 7 8 9 10 11 12 13 14 15 16 17 18 19 20 21 22 23 24 25 26 27 28 29 30 31 32 33 34 35 36 37 38 39 40 41 42 43 44 45 46 47 48 49 50

000
ASUS43 KTOP 301159
RWRKS

WEATHER ROUNDUP FOR KANSAS
NATIONAL WEATHER SERVICE GOODLAND KS
700 AM CDT MON MAR 30 2015

NOTE:  "FAIR" INDICATES FEW OR NO CLOUDS BELOW 12,000 FEET WITH NO
SIGNIFICANT WEATHER AND/OR OBSTRUCTIONS TO VISIBILITY.

KSZ001>006-013>018-027>032-041>047-301300-
NORTHWEST KANSAS

CITY           SKY/WX    TMP DP  RH WIND       PRES   REMARKS
GOODLAND       CLEAR     44  24  45 S21G28    30.11S
6HR MIN TEMP:  40; 6HR MAX TEMP:  46;

HAYS           CLEAR     36  19  51 SW8       30.17R
HILL CITY      CLEAR     44  20  38 SW9       30.14S
6HR MIN TEMP:  32; 6HR MAX TEMP:  44;

RUSSELL        CLEAR     40  28  62 S13       30.15R WCI  32
6HR MIN TEMP:  32; 6HR MAX TEMP:  40;

$$

KSZ061>065-074>080-084>089-301300-
SOUTHWEST KANSAS

CITY           SKY/WX    TMP DP  RH WIND       PRES   REMARKS
DODGE CITY     CLEAR     38  25  59 S9        30.19R
6HR MIN TEMP:  37; 6HR MAX TEMP:  48;

ELKHART          N/A     45  24  43 SW10        N/A
GARDEN CITY    CLEAR     37  26  64 S8        30.15F
6HR MIN TEMP:  35; 6HR MAX TEMP:  42;

GREAT BEND     CLEAR     34  25  69 S8        30.19R
LIBERAL        CLEAR     39  27  60 SW8       30.20S
$$

KSZ066>073-081>083-090>101-301300-
SOUTHEAST KANSAS

CITY           SKY/WX    TMP DP  RH WIND       PRES   REMARKS
CHANUTE        CLEAR     33  31  92 CALM      30.23R
6HR MIN TEMP:  32; 6HR MAX TEMP:  44;

COFFEYVILLE    CLEAR     34  33  96 N5        30.22R
6HR MIN TEMP:  33; 6HR MAX TEMP:  48;

HUTCHINSON     CLEAR     31  25  78 CALM      30.20R
6HR MIN TEMP:  30; 6HR MAX TEMP:  48;

MEDICINE LODGE   N/A     33  29  85 N5        30.20R
NEWTON         CLEAR     39  27  60 S8        30.21R
PARSONS        CLEAR     32  30  92 NW3       30.23R
6HR MIN TEMP:  31; 6HR MAX TEMP:  42;

WICHITA INTL   CLEAR     33  28  81 SW3       30.20R
6HR MIN TEMP:  33; 6HR MAX TEMP:  53;

WICHITA JABRA  CLEAR     39  32  76 SE3       30.20R
6HR MIN TEMP:  35; 6HR MAX TEMP:  47;

WINFIELD       CLEAR     38  33  82 E3        30.20F
6HR MIN TEMP:  34; 6HR MAX TEMP:  51;

$$

KSZ007>012-019>026-033>040-048>060-102>105-301300-
NORTHEAST KANSAS

CITY           SKY/WX    TMP DP  RH WIND       PRES   REMARKS
CONCORDIA      PTCLDY    46  28  49 SW16      30.14S
6HR MIN TEMP:  39; 6HR MAX TEMP:  47;

EMPORIA        CLEAR     31  28  89 CALM      30.20R
6HR MIN TEMP:  31; 6HR MAX TEMP:  44;

LAWRENCE       CLEAR     27  24  89 N5        30.20R
6HR MIN TEMP:  25; 6HR MAX TEMP:  36;

MANHATTAN      PTCLDY    28  27  96 CALM      30.18S FOG
6HR MIN TEMP:  27; 6HR MAX TEMP:  36;

OLATHE IND     CLEAR     33  31  92 S7        30.20R
6HR MIN TEMP:  29; 6HR MAX TEMP:  44;

OLATHE EXE     CLEAR     38  33  82 CALM      30.18R
6HR MIN TEMP:  34; 6HR MAX TEMP:  43;

SALINA         CLEAR     29  23  78 S3        30.18S
6HR MIN TEMP:  29; 6HR MAX TEMP:  40;

TOPEKA BILLARD PTCLDY    35  32  88 CALM      30.20R
6HR MIN TEMP:  31; 6HR MAX TEMP:  41;

TOPEKA FORBES  PTCLDY    36  30  79 CALM      30.18R
6HR MIN TEMP:  31; 6HR MAX TEMP:  42;

$$


USA.gov is the U.S. government's official web portal to all federal, state and local government web resources and services.